sat.trackr.live / text

‹ back to catalog

STARLINK-5964

NORAD 56009 · 2023-042Z

PAYLOAD ACTIVE UNKNOWN

§ Identity

Operator
Country
US
Launch date
2023-03-24
Launch site
AFETR
Launch vehicle
Mass (kg)
RCS (m²)

Purposes: comms

External: N2YO · Heavens-Above · Gunter

§ Orbital elements

Epoch: 2026-05-24T23:00:46.635840Z

Period
94.27 min
Inclination
43.0058°
Eccentricity
0.0001700
Mean motion
15.27577485 rev/d
Perigee alt
481.9 km
Apogee alt
484.2 km
Semi-major
6,861.2 km
B*
-7.0575e-6
RAAN
352.3045°
Arg perigee
267.1098°
Mean anomaly
92.9559°
Rev number
17,449

§ Raw data

STARLINK-59641 56009U 23042Z   26144.95887310 -.00000457  00000+0 -70575-5 0  99952 56009  43.0058 352.3045 0001700 267.1098  92.9559 15.27577485174490

JSON: /api/v1/satellites/56009 · /tle

For live sub-satellite position, see the globe view (requires WebGL).

§ Visibility from observer

Set your observer location to see the next 7 days of passes ≥ 10°. The values pass through the URL so the page stays shareable.

No JS? Fill the form by hand. The geolocation button needs JavaScript.